H1 CPF 2 NER 2024 6 12 9 164 01 glonass141 H2 1908801 9141 44850 2024 6 12 0 0 0 2024 6 15 23 45 0 900 1 1 0 0 0 1 H9 10 0 60473 0.00000 0 12389228.614 12755784.315 -18252893.437 10 0 60473 900.00000 0 10131650.214 12020597.306 -20053453.872 10 0 60473 1800.00000 0 7631909.359 11415291.972 -21463311.201 10 0 60473 2700.00000 0 4947524.115 10977104.362 -22454960.951 10 0 60473 3600.00000 0 2143035.718 10732720.357 -23009067.123 10 0 60473 4500.00000 0 -712444.941 10697105.970 -23114842.408 10 0 60473 5400.00000 0 -3547880.786 10872852.018 -22770258.860 10 0 60473 6300.00000 0 -6293031.550 11250060.922 -21982085.000 10 0 60473 7200.00000 0 -8881142.486 11806780.237 -20765748.834 10 0 60473 8100.00000 0 -11251486.642 12509964.088 -19145029.834 10 0 60473 9000.00000 0 -13351654.826 13316921.215 -17151586.306 10 0 60473 9900.00000 0 -15139498.187 14177187.586 -14824327.990 10 0 60473 10800.00000 0 -16584643.183 15034743.475 -12208646.752 10 0 60473 11700.00000 0 -17669516.952 15830480.376 -9355521.119 10 0 60473 12600.00000 0 -18389841.834 16504812.583 -6320512.976 10 0 60473 13500.00000 0 -18754580.410 17000322.308 -3162676.823 10 0 60473 14400.00000 0 -18785335.619 17264326.074 56596.322 10 0 60473 15300.00000 0 -18515233.484 17251253.664 3274777.059 10 0 60473 16200.00000 0 -17987337.666 16924739.245 6429413.870 10 0 60473 17100.00000 0 -17252664.531 16259336.688 9459343.546 10 0 60473 18000.00000 0 -16367883.810 15241787.279 12305872.154 10 0 60473 18900.00000 0 -15392802.657 13871787.004 14913903.968 10 0 60473 19800.00000 0 -14387739.393 12162221.657 17232997.184 10 0 60473 20700.00000 0 -13410897.211 10138860.241 19218326.936 10 0 60473 21600.00000 0 -12515847.534 7839519.484 20831538.311 10 0 60473 22500.00000 0 -11749227.581 5312733.970 22041474.298 10 0 60473 23400.00000 0 -11148747.455 2615986.487 22824766.039 10 0 60473 24300.00000 0 -10741588.910 -186429.099 23166275.324 10 0 60473 25200.00000 0 -10543261.700 -3025825.340 23059381.846 10 0 60473 26100.00000 0 -10556964.530 -5831720.714 22506110.295 10 0 60473 27000.00000 0 -10773476.942 -8534515.493 21517095.063 10 0 60473 27900.00000 0 -11171586.751 -11068135.132 20111382.893 10 0 60473 28800.00000 0 -11719035.703 -13372533.458 18316076.521 10 0 60473 29700.00000 0 -12373944.685 -15395953.363 16165824.981 10 0 60473 30600.00000 0 -13086659.937 -17096852.253 13702168.976 10 0 60473 31500.00000 0 -13801944.032 -18445412.759 10972752.346 10 0 60473 32400.00000 0 -14461420.671 -19424575.937 8030413.363 10 0 60473 33300.00000 0 -15006171.233 -20030553.563 4932172.033 10 0 60473 34200.00000 0 -15379374.043 -20272797.539 1738132.003 10 0 60473 35100.00000 0 -15528874.821 -20173426.984 -1489682.274 10 0 60473 36000.00000 0 -15409579.020 -19766136.367 -4688530.753 10 0 60473 36900.00000 0 -14985563.655 -19094630.037 -7796181.693 10 0 60473 37800.00000 0 -14231817.592 -18210648.778 -10752129.807 10 0 60473 38700.00000 0 -13135534.650 -17171671.584 -13498784.051 10 0 60473 39600.00000 0 -11696902.625 -16038389.994 -15982600.779 10 0 60473 40500.00000 0 -9929352.662 -14872062.204 -18155139.045 10 0 60473 41400.00000 0 -7859256.323 -13731859.527 -19974016.361 10 0 60473 42300.00000 0 -5525081.260 -12672318.219 -21403745.296 10 0 60473 43200.00000 0 -2976039.475 -11741005.152 -22416433.821 10 0 60473 44100.00000 0 -270283.780 -10976496.690 -22992335.195 10 0 60473 45000.00000 0 2527272.657 -10406756.648 -23120236.316 10 0 60473 45900.00000 0 5347422.818 -10047982.055 -22797676.865 10 0 60473 46800.00000 0 8119315.421 -9903965.363 -22030995.001 10 0 60473 47700.00000 0 10773176.824 -9965999.632 -20835198.935 10 0 60473 48600.00000 0 13242991.580 -10213329.989 -19233667.230 10 0 60473 49500.00000 0 15469029.769 -10614131.318 -17257684.092 10 0 60473 50400.00000 0 17400115.782 -11126969.744 -14945819.326 10 0 60473 51300.00000 0 18995544.359 -11702684.868 -12343165.675 10 0 60473 52200.00000 0 20226564.684 -12286611.902 -9500449.160 10 0 60473 53100.00000 0 21077371.732 -12821048.510 -6473030.647 10 0 60473 54000.00000 0 21545565.040 -13247860.957 -3319818.927 10 0 60473 54900.00000 0 21642057.629 -13511118.491 -102117.340 10 0 60473 55800.00000 0 21390441.029 -13559644.013 3117572.804 10 0 60473 56700.00000 0 20825835.252 -13349372.957 6276768.107 10 0 60473 57600.00000 0 19993274.054 -12845420.809 9314214.320 10 0 60473 58500.00000 0 18945695.034 -12023772.284 12171069.272 10 0 60473 59400.00000 0 17741620.320 -10872521.427 14792034.871 10 0 60473 60300.00000 0 16442625.934 -9392610.884 17126416.911 10 0 60473 61200.00000 0 15110706.230 -7598039.633 19129093.122 10 0 60473 62100.00000 0 13805643.488 -5515530.534 20761372.023 10 0 60473 63000.00000 0 12582491.945 -3183671.291 21991727.396 10 0 60473 63900.00000 0 11489280.363 -651563.978 22796395.641 10 0 60473 64800.00000 0 10565027.748 2022961.825 23159825.787 10 0 60473 65700.00000 0 9838153.735 4775499.565 23074974.560 10 0 60473 66600.00000 0 9325348.837 7537492.514 22543441.465 10 0 60473 67500.00000 0 9030950.811 10238838.233 21575441.489 10 0 60473 68400.00000 0 8946852.745 12810564.861 20189615.673 10 0 60473 69300.00000 0 9052946.712 15187470.131 18412682.421 10 0 60473 70200.00000 0 9318084.815 17310615.324 16278935.123 10 0 60473 71100.00000 0 9701518.164 19129571.833 13829594.332 10 0 60473 72000.00000 0 10154754.330 20604327.576 11112025.438 10 0 60473 72900.00000 0 10623756.227 21706774.128 8178835.415 10 0 60473 73800.00000 0 11051390.668 22421712.230 5086864.723 10 0 60473 74700.00000 0 11380023.900 22747333.031 1896092.884 10 0 60473 75600.00000 0 11554154.573 22695154.037 -1331521.731 10 0 60473 76500.00000 0 11522972.430 22289411.543 -4533245.595 10 0 60473 77400.00000 0 11242733.472 21565934.201 -7646793.562 10 0 60473 78300.00000 0 10678849.600 20570544.497 -10611547.841 10 0 60473 79200.00000 0 9807602.423 19357055.073 -13369747.806 10 0 60473 80100.00000 0 8617406.569 17984944.347 -15867626.343 10 0 60473 81000.00000 0 7109566.808 16516809.735 -18056469.453 10 0 60473 81900.00000 0 5298494.814 15015706.402 -19893577.333 10 0 60473 82800.00000 0 3211374.319 13542484.533 -21343107.220 10 0 60473 83700.00000 0 887287.034 12153238.127 -22376780.739 10 0 60473 84600.00000 0 -1624165.393 10896973.536 -22974441.438 10 0 60473 85500.00000 0 -4264686.517 9813596.520 -23124451.240 10 0 60474 0.00000 0 -6969481.273 8932302.869 -22823918.035 10 0 60474 900.00000 0 -9669733.022 8270439.871 -22078749.763 10 0 60474 1800.00000 0 -12295254.338 7832887.185 -20903534.651 10 0 60474 2700.00000 0 -14777205.466 7611980.822 -19321249.738 10 0 60474 3600.00000 0 -17050763.229 7587983.472 -17362804.112 10 0 60474 4500.00000 0 -19057630.275 7730079.392 -15066426.260 10 0 60474 5400.00000 0 -20748279.786 7997850.391 -12476908.124 10 0 60474 6300.00000 0 -22083842.311 8343168.897 -9644721.332 10 0 60474 7200.00000 0 -23037556.607 8712426.505 -6625023.692 10 0 60474 8100.00000 0 -23595724.975 9049002.310 -3476576.146 10 0 60474 9000.00000 0 -23758134.628 9295865.396 -260592.138 10 0 60474 9900.00000 0 -23537929.224 9398200.487 2960457.395 10 0 60474 10800.00000 0 -22960937.917 9305945.130 6124059.544 10 0 60474 11700.00000 0 -22064492.016 8976130.954 9168871.458 10 0 60474 12600.00000 0 -20895780.667 8374930.210 12035905.235 10 0 60474 13500.00000 0 -19509815.951 7479321.546 14669662.949 10 0 60474 14400.00000 0 -17967093.673 6278305.287 17019200.512 10 0 60474 15300.00000 0 -16331048.247 4773617.453 19039100.674 10 0 60474 16200.00000 0 -14665408.057 2979912.758 20690337.645 10 0 60474 17100.00000 0 -13031561.131 924408.763 21941018.042 10 0 60474 18000.00000 0 -11486040.080 -1353994.480 22766985.273 10 0 60474 18900.00000 0 -10078229.812 -3806083.556 23152277.036 10 0 60474 19800.00000 0 -8848392.047 -6374134.064 23089428.180 10 0 60474 20700.00000 0 -7826087.544 -8994073.033 22579613.757 10 0 60474 21600.00000 0 -7029060.493 -11597913.655 21632629.729 10 0 60474 22500.00000 0 -6462630.681 -14116363.379 20266711.451 10 0 60474 23400.00000 0 -6119618.295 -16481499.118 18508192.647 10 0 60474 24300.00000 0 -5980804.423 -18629400.293 16391010.362 10 0 60474 25200.00000 0 -6015908.292 -20502631.665 13956063.954 10 0 60474 26100.00000 0 -6185040.905 -22052473.500 11250438.991 10 0 60474 27000.00000 0 -6440574.748 -23240806.500 8326509.474 10 0 60474 27900.00000 0 -6729351.679 -24041572.628 5240934.379 10 0 60474 28800.00000 0 -6995136.427 -24441750.073 2053566.911 10 0 60474 29700.00000 0 -7181212.371 -24441800.586 -1173703.061 10 0 60474 30600.00000 0 -7233009.619 -24055569.255 -4378151.183 10 0 60474 31500.00000 0 -7100653.453 -23309639.774 -7497441.772 10 0 60474 32400.00000 0 -6741324.022 -22242171.321 -10470847.606 10 0 60474 33300.00000 0 -6121325.725 -20901265.242 -13240441.713 10 0 60474 34200.00000 0 -5217776.687 -19342929.911 -15752236.839 10 0 60474 35100.00000 0 -4019844.664 -17628729.417 -17957249.240 10 0 60474 36000.00000 0 -2529474.953 -15823215.345 -19812464.987 10 0 60474 36900.00000 0 -761577.404 -13991250.295 -21281688.908 10 0 60474 37800.00000 0 1256337.211 -12195336.389 -22336258.850 10 0 60474 38700.00000 0 3485057.839 -10493061.771 -22955610.755 10 0 60474 39600.00000 0 5875074.125 -8934772.954 -23127683.177 10 0 60474 40500.00000 0 8368419.815 -7561571.131 -22849153.191 10 0 60474 41400.00000 0 10900881.838 -6403716.537 -22125499.177 10 0 60474 42300.00000 0 13404482.687 -5479507.497 -20970889.398 10 0 60474 43200.00000 0 15810132.208 -4794680.411 -19407898.901 10 0 60474 44100.00000 0 18050337.710 -4342354.629 -17467060.680 10 0 60474 45000.00000 0 20061858.852 -4103523.011 -15186260.410 10 0 60474 45900.00000 0 21788196.180 -4048065.643 -12609987.214 10 0 60474 46800.00000 0 23181809.361 -4136242.015 -9788455.783 10 0 60474 47700.00000 0 24205972.636 -4320596.732 -6776617.838 10 0 60474 48600.00000 0 24836190.612 -4548196.382 -3633083.033 10 0 60474 49500.00000 0 25061116.161 -4763101.388 -418971.175 10 0 60474 50400.00000 0 24882933.370 -4908967.005 2803281.081 10 0 60474 51300.00000 0 24317191.150 -4931662.543 5971135.228 10 0 60474 52200.00000 0 23392096.171 -4781797.538 9023163.603 10 0 60474 53100.00000 0 22147296.442 -4417047.989 11900236.097 10 0 60474 54000.00000 0 20632207.940 -3804184.618 14546658.134 10 0 60474 54900.00000 0 18903955.396 -2920718.011 16911238.499 10 0 60474 55800.00000 0 17025013.979 -1756091.778 18948267.276 10 0 60474 56700.00000 0 15060650.475 -312373.955 20618386.217 10 0 60474 57600.00000 0 13076270.246 1395582.323 21889336.163 10 0 60474 58500.00000 0 11134779.619 3340515.875 22736568.462 10 0 60474 59400.00000 0 9294072.234 5483657.224 23143709.959 10 0 60474 60300.00000 0 7604742.338 7776114.755 23102873.647 10 0 60474 61200.00000 0 6108118.578 10160691.119 22614809.691 10 0 60474 62100.00000 0 4834698.549 12574056.249 21688894.163 10 0 60474 63000.00000 0 3803047.946 14949188.766 20342955.450 10 0 60474 63900.00000 0 3019209.303 17217986.323 18602940.963 10 0 60474 64800.00000 0 2476644.446 19313938.278 16502429.437 10 0 60474 65700.00000 0 2156712.976 21174751.034 14081996.818 10 0 60474 66600.00000 0 2029666.992 22744817.727 11388446.419 10 0 60474 67500.00000 0 2056120.836 23977429.776 8473916.669 10 0 60474 68400.00000 0 2188934.638 24836637.846 5394882.335 10 0 60474 69300.00000 0 2375432.843 25298683.753 2211067.498 10 0 60474 70200.00000 0 2559864.410 25352942.298 -1015709.322 10 0 60474 71100.00000 0 2686000.643 25002332.233 -4222735.748 10 0 60474 72000.00000 0 2699760.268 24263177.669 -7347628.278 10 0 60474 72900.00000 0 2551749.650 23164524.425 -10329552.806 10 0 60474 73800.00000 0 2199609.190 21746938.929 -13110418.349 10 0 60474 74700.00000 0 1610064.764 20060839.381 -15636019.591 10 0 60474 75600.00000 0 760595.390 18164428.927 -17857104.880 10 0 60474 76500.00000 0 -359355.547 16121317.672 -19730347.738 10 0 60474 77400.00000 0 -1747678.766 13997933.728 -21219201.931 10 0 60474 78300.00000 0 -3389438.814 11860832.510 -22294622.643 10 0 60474 79200.00000 0 -5257263.468 9774017.767 -22935639.092 10 0 60474 80100.00000 0 -7312267.809 7796387.279 -23129767.065 10 0 60474 81000.00000 0 -9505475.081 5979410.659 -22873253.169 10 0 60474 81900.00000 0 -11779675.337 4365136.647 -22171146.097 10 0 60474 82800.00000 0 -14071644.174 2984613.139 -21037193.678 10 0 60474 83700.00000 0 -16314628.547 1856785.428 -19493568.067 10 0 60474 84600.00000 0 -18440995.371 987917.699 -17570424.858 10 0 60474 85500.00000 0 -20384931.628 371560.498 -15305305.255 10 0 60475 0.00000 0 -22085082.494 -10936.355 -12742393.858 10 0 60475 900.00000 0 -23487017.696 -189389.273 -9931645.814 10 0 60475 1800.00000 0 -24545420.568 -203270.213 -6927804.693 10 0 60475 2700.00000 0 -25225911.448 -99786.323 -3789326.507 10 0 60475 3600.00000 0 -25506427.317 68367.518 -577235.011 10 0 60475 4500.00000 0 -25378101.781 245486.368 2646069.870 10 0 60475 5400.00000 0 -24845609.562 375457.127 5818026.521 10 0 60475 6300.00000 0 -23926962.506 404373.783 8877124.982 10 0 60475 7200.00000 0 -22652767.103 283055.110 11764095.459 10 0 60475 8100.00000 0 -21064975.925 -30641.549 14423049.206 10 0 60475 9000.00000 0 -19215186.306 -569807.730 16802550.268 10 0 60475 9900.00000 0 -17162558.022 -1356856.839 18856598.275 10 0 60475 10800.00000 0 -14971437.062 -2402350.674 20545504.501 10 0 60475 11700.00000 0 -12708784.198 -3704328.419 21836645.675 10 0 60475 12600.00000 0 -10441514.580 -5248166.232 22705082.411 10 0 60475 13500.00000 0 -8233857.723 -7006973.674 23134031.651 10 0 60475 14400.00000 0 -6144846.005 -8942511.312 23115185.120 10 0 60475 15300.00000 0 -4226034.318 -11006592.488 22648868.340 10 0 60475 16200.00000 0 -2519543.837 -13142912.556 21744037.407 10 0 60475 17100.00000 0 -1056509.692 -15289231.376 20418113.361 10 0 60475 18000.00000 0 144004.144 -17379820.201 18696656.622 10 0 60475 18900.00000 0 1075578.403 -19348073.021 16612886.681 10 0 60475 19800.00000 0 1744477.052 -21129175.249 14207054.862 10 0 60475 20700.00000 0 2169149.215 -22662719.631 11525680.756 10 0 60475 21600.00000 0 2379215.163 -23895160.880 8620665.523 10 0 60475 22500.00000 0 2413978.480 -24782006.487 5548297.809 10 0 60475 23400.00000 0 2320526.596 -25289651.479 2368170.474 10 0 60475 24300.00000 0 2151499.392 -25396779.210 -857971.560 10 0 60475 25200.00000 0 1962620.062 -25095268.018 -4067430.306 10 0 60475 26100.00000 0 1810092.900 -24390564.024 -7197776.976 10 0 60475 27000.00000 0 1747978.870 -23301502.801 -10188073.256 10 0 60475 27900.00000 0 1825661.190 -21859585.861 -12980066.924 10 0 60475 28800.00000 0 2085509.786 -20107741.170 -15519337.444 10 0 60475 29700.00000 0 2560845.228 -18098618.908 -17756368.083 10 0 60475 30600.00000 0 3274290.285 -15892493.578 -19647522.540 10 0 60475 31500.00000 0 4236580.697 -13554860.450 -21155906.055 10 0 60475 32400.00000 0 5445887.284 -11153827.374 -22252093.392 10 0 60475 33300.00000 0 6887679.646 -8757411.637 -22914708.924 10 0 60475 34200.00000 0 8535138.557 -6430855.570 -23130847.141 10 0 60475 35100.00000 0 10350100.723 -4234073.641 -22896325.222 10 0 60475 36000.00000 0 12284496.876 -2219337.968 -22215762.771 10 0 60475 36900.00000 0 14282223.070 -429298.993 -21102487.354 10 0 60475 37800.00000 0 16281366.656 1104576.462 -19578267.977 10 0 60475 38700.00000 0 18216693.280 2363085.358 -17672882.134 10 0 60475 39600.00000 0 20022290.177 3339842.973 -15423525.404 10 0 60475 40500.00000 0 21634254.406 4041290.413 -12874075.747 10 0 60475 41400.00000 0 22993312.880 4486156.913 -10074227.577 10 0 60475 42300.00000 0 24047263.977 4704401.906 -7078513.304 10 0 60475 43200.00000 0 24753138.274 4735683.756 -3945232.297 10 0 60475 44100.00000 0 25078987.995 4627422.057 -735308.953 10 0 60475 45000.00000 0 25005230.661 4432537.271 2488897.062 10 0 60475 45900.00000 0 24525491.435 4206964.852 5664804.628 10 0 60475 46800.00000 0 23646909.899 4007050.097 8730825.048 10 0 60475 47700.00000 0 22389899.595 3886934.478 11627552.254 10 0 60475 48600.00000 0 20787371.533 3896044.079 14298906.492 10 0 60475 49500.00000 0 18883455.110 4076785.926 16693209.939 10 0 60475 50400.00000 0 16731770.523 4462548.871 18764174.301 10 0 60475 51300.00000 0 14393324.971 5076092.537 20471782.531 10 0 60475 52200.00000 0 11934120.019 5928391.513 21783049.034 10 0 60475 53100.00000 0 9422568.908 7017982.904 22672645.058 10 0 60475 54000.00000 0 6926829.940 8330844.575 23123378.591 10 0 60475 54900.00000 0 4512165.050 9840809.595 23126520.569 10 0 60475 55800.00000 0 2238431.433 11510500.473 22681971.859 10 0 60475 56700.00000 0 157808.451 13292745.525 21798268.067 10 0 60475 57600.00000 0 -1687147.597 15132419.993 20492421.863 10 0 60475 58500.00000 0 -3265041.473 16968637.012 18789605.189 10 0 60475 59400.00000 0 -4556706.978 18737198.950 16722676.372 10 0 60475 60300.00000 0 -5555761.133 20373208.569 14331559.850 10 0 60475 61200.00000 0 -6268621.741 21813732.308 11662488.957 10 0 60475 62100.00000 0 -6713987.588 23000405.230 8767124.846 10 0 60475 63000.00000 0 -6921802.773 23881868.875 5701567.169 10 0 60475 63900.00000 0 -6931748.314 24415939.516 2525274.626 10 0 60475 64800.00000 0 -6791324.167 24571414.935 -700084.446 10 0 60475 65700.00000 0 -6553602.390 24329442.450 -3911829.380 10 0 60475 66600.00000 0 -6274746.468 23684388.991 -7047488.966 10 0 60475 67500.00000 0 -6011402.194 22644174.782 -10046023.382 10 0 60475 68400.00000 0 -5818071.384 21230054.751 -12849021.667 10 0 60475 69300.00000 0 -5744580.826 19475855.253 -15401850.310 10 0 60475 70200.00000 0 -5833755.140 17426696.832 -17654729.468 10 0 60475 71100.00000 0 -6119393.704 15137255.732 -19563714.712 10 0 60475 72000.00000 0 -6624638.985 12669636.592 -21091564.168 10 0 60475 72900.00000 0 -7360806.926 10090945.334 -22208473.318 10 0 60475 73800.00000 0 -8326730.314 7470663.992 -22892662.555 10 0 60475 74700.00000 0 -9508644.110 4877937.674 -23130805.640 10 0 60475 75600.00000 0 -10880618.543 2378887.374 -22918290.555 10 0 60475 76500.00000 0 -12405522.373 34061.157 -22259307.680 10 0 60475 77400.00000 0 -14036476.069 -2103869.769 -21166763.777 10 0 60475 78300.00000 0 -15718733.766 -3992074.225 -19662023.745 10 0 60475 79200.00000 0 -17391914.610 -5599102.147 -17774485.618 10 0 60475 80100.00000 0 -18992489.213 -6905940.328 -15540997.626 10 0 60475 81000.00000 0 -20456416.150 -7906540.240 -13005129.314 10 0 60475 81900.00000 0 -21721817.108 -8607797.833 -10216311.652 10 0 60475 82800.00000 0 -22731577.752 -9028988.425 -7228863.702 10 0 60475 83700.00000 0 -23435764.669 -9200682.908 -4100925.695 10 0 60475 84600.00000 0 -23793756.755 -9163193.324 -893320.095 10 0 60475 85500.00000 0 -23776001.673 -8964615.619 2331636.304 10 0 60476 0.00000 0 -23365324.181 -8658554.122 5511345.245 10 0 60476 900.00000 0 -22557731.819 -8301625.188 8584142.528 10 0 60476 1800.00000 0 -21362685.718 -7950846.846 11490488.164 10 0 60476 2700.00000 0 -19802825.341 -7661024.574 14174113.969 10 0 60476 3600.00000 0 -17913159.966 -7482243.898 16583102.673 10 0 60476 4500.00000 0 -15739761.109 -7457574.941 18670880.276 10 0 60476 5400.00000 0 -13338010.687 -7621084.898 20397103.338 10 0 60476 6300.00000 0 -10770477.612 -7996241.255 21728425.505 10 0 60476 7200.00000 0 -8104510.468 -8594772.083 22639129.847 10 0 60476 8100.00000 0 -5409645.092 -9416030.748 23111616.160 10 0 60476 9000.00000 0 -2754933.038 -10446891.598 23136734.973 10 0 60476 9900.00000 0 -206299.959 -11662181.370 22713962.503 10 0 60476 10800.00000 0 2175958.525 -13025629.164 21851413.532 10 0 60476 11700.00000 0 4339441.520 -14491296.633 20565691.737 10 0 60476 12600.00000 0 6241575.766 -16005430.217 18881579.678 10 0 60476 13500.00000 0 7851137.820 -17508659.832 16831573.351 10 0 60476 14400.00000 0 9149303.124 -18938453.807 14455268.884 10 0 60476 15300.00000 0 10130178.722 -20231728.843 11798611.668 10 0 60476 16200.00000 0 10800797.527 -21327506.762 8913020.910 10 0 60476 17100.00000 0 11180574.186 -22169507.208 5854405.102 10 0 60476 18000.00000 0 11300245.024 -22708567.367 2682086.410 10 0 60476 18900.00000 0 11200336.243 -22904786.367 -542345.904 10 0 60476 19800.00000 0 10929224.604 -22729302.929 -3756231.095 10 0 60476 20700.00000 0 10540872.361 -22165629.767 -6897058.164 10 0 60476 21600.00000 0 10092332.380 -21210486.620 -9903688.426 10 0 60476 22500.00000 0 9641129.538 -19874094.801 -12717554.796 10 0 60476 23400.00000 0 9242630.139 -18179918.882 -15283813.352 10 0 60476 24300.00000 0 8947511.915 -16163864.667 -17552423.596 10 0 60476 25200.00000 0 8799443.062 -13872965.732 -19479135.274 10 0 60476 26100.00000 0 8833070.027 -11363612.685 -21026361.476 10 0 60476 27000.00000 0 9072400.589 -8699398.813 -22163920.196 10 0 60476 27900.00000 0 9529651.888 -5948672.049 -22869629.300 10 0 60476 28800.00000 0 10204613.167 -3181895.756 -23129742.896 10 0 60476 29700.00000 0 11084550.929 -468928.776 -22939220.455 10 0 60476 30600.00000 0 12144661.048 2123661.477 -22301823.438 10 0 60476 31500.00000 0 13349048.937 4535140.591 -21230037.728 10 0 60476 32400.00000 0 14652196.392 6712897.473 -19744823.683 10 0 60476 33300.00000 0 16000852.920 8614388.302 -17875199.073 10 0 60476 34200.00000 0 17336271.362 10208653.744 -15657663.605 10 0 60476 35100.00000 0 18596692.901 11477347.331 -13135476.855 10 0 60476 36000.00000 0 19719976.127 12415233.725 -10357804.400 10 0 60476 36900.00000 0 20646258.694 13030138.019 -7378749.630 10 0 60476 37800.00000 0 21320538.962 13342350.603 -4256290.957 10 0 60476 38700.00000 0 21695068.577 13383515.041 -1051145.956 10 0 60476 39600.00000 0 21731455.200 13195048.184 2174414.603 10 0 60476 40500.00000 0 21402387.104 12826161.253 5357779.132 10 0 60476 41400.00000 0 20692907.580 12331567.151 8437210.018 10 0 60476 42300.00000 0 19601186.252 11768972.028 11353037.059 10 0 60476 43200.00000 0 18138755.616 11196457.672 14048806.595 10 0 60476 44100.00000 0 16330203.545 10669865.321 16472364.663 10 0 60476 45000.00000 0 14212335.093 10240290.832 18576854.026 10 0 60476 45900.00000 0 11832838.739 9951795.967 20321607.049 10 0 60476 46800.00000 0 9248512.401 9839431.116 21672918.497 10 0 60476 47700.00000 0 6523122.368 9927651.528 22604684.786 10 0 60476 48600.00000 0 3724982.953 10229192.590 23098898.656 10 0 60476 49500.00000 0 924355.744 10744450.774 23145990.908 10 0 60476 50400.00000 0 -1809225.502 11461395.958 22745013.303 10 0 60476 51300.00000 0 -4409595.458 12356019.156 21903659.469 10 0 60476 52200.00000 0 -6816455.855 13393297.711 20638123.202 10 0 60476 53100.00000 0 -8977630.304 14528638.789 18972796.267 10 0 60476 54000.00000 0 -10850983.237 15709742.276 16939810.437 10 0 60476 54900.00000 0 -12405924.318 16878806.665 14578431.218 10 0 60476 55800.00000 0 -13624436.322 17974986.989 11934313.440 10 0 60476 56700.00000 0 -14501583.859 18937002.908 9058631.533 10 0 60476 57600.00000 0 -15045481.549 19705788.194 6007099.880 10 0 60476 58500.00000 0 -15276722.602 20227070.404 2838901.129 10 0 60476 59400.00000 0 -15227291.345 20453771.778 -384457.519 10 0 60476 60300.00000 0 -14939004.985 20348129.200 -3600338.168 10 0 60476 61200.00000 0 -14461550.033 19883442.375 -6746192.860 10 0 60476 62100.00000 0 -13850196.240 19045374.589 -9760786.745 10 0 60476 63000.00000 0 -13163284.952 17832749.105 -12585399.134 10 0 60476 63900.00000 0 -12459598.720 16257805.463 -15164977.972 10 0 60476 64800.00000 0 -11795724.345 14345902.848 -17449224.123 10 0 60476 65700.00000 0 -11223522.047 12134681.198 -19393583.218 10 0 60476 66600.00000 0 -10787809.015 9672713.867 -20960124.711 10 0 60476 67500.00000 0 -10524356.516 7017707.354 -22118290.194 10 0 60476 68400.00000 0 -10458286.330 4234322.835 -22845495.770 10 0 60476 69300.00000 0 -10602935.129 1391710.425 -23127576.333 10 0 60476 70200.00000 0 -10959235.408 -1439140.834 -22959062.944 10 0 60476 71100.00000 0 -11515639.406 -4188126.507 -22343287.887 10 0 60476 72000.00000 0 -12248589.242 -6788710.003 -21292315.538 10 0 60476 72900.00000 0 -13123513.147 -9180453.583 -19826700.692 10 0 60476 73800.00000 0 -14096305.230 -11311291.790 -17975079.491 10 0 60476 74700.00000 0 -15115225.621 -13139452.918 -15773601.421 10 0 60476 75600.00000 0 -16123139.932 -14634949.253 -13265214.118 10 0 60476 76500.00000 0 -17060002.683 -15780575.156 -10498815.599 10 0 60476 77400.00000 0 -17865478.985 -16572372.936 -7528291.271 10 0 60476 78300.00000 0 -18481593.119 -17019549.137 -4411455.326 10 0 60476 79200.00000 0 -18855291.704 -17143847.031 -1208917.994 10 0 60476 80100.00000 0 -18940813.030 -16978404.098 2017098.481 10 0 60476 81000.00000 0 -18701762.615 -16566144.808 5203971.439 10 0 60476 81900.00000 0 -18112807.787 -15957778.420 8289892.987 10 0 60476 82800.00000 0 -17160920.374 -15209487.695 11215064.988 10 0 60476 83700.00000 0 -15846115.814 -14380406.980 13922850.837 10 0 60476 84600.00000 0 -14181658.177 -13529996.362 16360862.279 10 0 60476 85500.00000 0 -12193722.895 -12715422.343 18481961.089 99